SCP
0 0 0 0 0 0 0 0 0 0 0 0 0 0 0 0 0 0 0 0 0 0 0 0 0 0 0 0 0 0 0 0 0 0 0 0 0 0 0 0 0 0 0
0 0 0 0 0 0 0 0 0 0 0 0 0 0 0 0 0 0 0 0 0 0 0 0 0 0 0 0 0 0 0 0 0 0 0 0 0 0 0 0 0 0 0
0 0 0 0 0 0 0 0 0 0 0 0 0 0 0 0 0 0 0 0 0 0 0 0 0 0 0 0 0 0 0 0 0 0 0 0 0 0 0 0 0 0 0
0 0 0 0 0 0 0 0 0 0 0 0 0 0 0 0 0 0 0 0 0 0 0 0 0 0 0 0 0 0 0 0 0 0 0 0 0 0 0 0 0 0 0
0 0 0 0 0 0 0 0 0 0 0 0 0 0 0 0 0 0 0 0 0 0 0 0 0 0 0 0 0 0 0 0 0 0 0 0 0 0 0 0 0 0 0
0 0 0 0 0 0 0 0 0 0 0 0 0 0 0 0 0 0 0 0 0 0 0 0 0 0 0 0 0 0 0 0 0 0 0 0 0 0 0 0 0 0 0
0 0 0 0 0 0 0 0 0 0 0 0 0 0 0 0 0 0 0 0 0 0 0 0 0 0 0 0 0 0 0 0 0 0 0 0 0 0 0 0 0 0 0
0 0 0 0 0 0 0 0 0 0 0 0 0 0 0 0 0 0 0 0 0 0 0 0 0 0 0 0 0 0 0 0 0 0 0 0 0 0 0 0 0 0 0
0 0 0 0 0 0 0 0 0 0 0 0 0 0 0 0 0 0 0 0 0 0 0 0 0 0 0 0 0 0 0 0 0 0 0 0 0 0 0 0 0 0 0
0 0 0 0 0 0 0 0 0 0 0 -0 -0 0 0 0 0 0 0 0 0 0 0 0 0 0 0 0 0 0 0 0 0 0 0 0 0 0 0 0 0 0 0
0 0 0 0 0 0 0 0 0 0 0 0 0 0 0 0 0 0 0 0 0 0 0 0 0 0 0 0 0 0 0 0 0 0 0 0 0 0 0 0 0 0 0
0 0 0 0 0 0 0 0 0 0 0 0 0 0 0 0 0 0 0 0 0 0 0 0 0 0 0 0 0 0 0 0 0 0 0 0 0 0 0 0 0 0 0
0 0 -0 -0 -0 -0 -0 0 0 0 0 0 0 0 0 0 0 0 0 0 0 0 0 0 0 0 0 0 0 0 0 0 0 0 0 0 0 0 0 0 0 0 0
0 0 -0 0 0 -0 0 -0 0 0 0 0 0 0 0 0 0 0 0 0 0 0 0 0 0 0 0 0 0 0 0 0 0 0 0 -0 -0 -0 -0 -0 -0 0 0
0 0 0 0 -0 -0 -0 -0 0 0 0 0 0 0 0 0 0 0 0 0 0 0 0 0 0 0 0 0 0 0 0 0 0 0 0 -0 -0 0 0 0 0 0 0
0 0 0 0 0 0 0 0 0 0 0 0 0 0 0 0 0 0 0 0 0 0 0 0 0 0 0 0 -0 -0 0 0 0 0 0 0 0 0 0 0 0 0 0
0 0 0 0 0 0 0 0 0 0 0 0 0 0 0 0 0 0 0 0 0 0 0 0 0 0 0 0 0 0 0 0 0 -0 -0 -0 0 0 0 -0 -0 -0 -0
0 0 0 -0 0 0 0 0 0 0 0 0 0 0 0 -0 -0 -0 -0 -0 -0 -0 0 -0 -0 0 0 0 0 0 0 0 0 0 -0 -0 -0 0 -0 -0 -0 0 0
0 0 0 0 0 0 0 0 0 0 0 0 0 -0 -0 -0 -0 -0 -0 -0 0 -0 -0 -0 -0 0 0 0 0 0 0 0 0 0 0 -0 -0 -0 -0 0 -0 -0 -0
0 0 0 0 0 0 0 0 0 0 0 0 0 0 0 0 0 0 0 0 0 -0 -0 -0 -0 0 0 0 0 0 0 0 0 0 0 0 0 0 0 0 0 -0 0
0 0 0 0 0 0 0 0 0 0 0 0 0 0 0 0 0 0 0 0 0 0 0 0 0 0 0 0 0 0 0 0 0 0 0 0 -0 -0 0 0 0 0 0
0 0 0 0 0 0 0 0 0 0 0 0 0 0 0 0 0 0 0 0 0 0 0 0 0 0 0 0 0 0 0 0 0 0 0 0 0 0 0 0 0 0 0
0 0 0 0 0 0 0 0 0 0 0 0 0 0 0 0 0 0 0 0 0 0 0 0 0 0 0 0 0 0 0 0 0 0 0 0 0 0 0 0 0 0 -0
0 0 0 0 0 0 0 0 0 0 0 0 0 0 0 0 0 0 0 0 0 0 0 0 0 0 0 0 0 0 0 0 0 0 0 0 0 0 0 0 0 0 0
0 0 0 0 0 0 0 0 0 0 0 0 0 0 0 0 0 0 0 0 0 0 0 0 0 0 0 0 0 0 0 0 0 0 0 0 0 0 0 0 0 0 0
0 0 0 0 0 0 0 0 0 0 0 0 0 0 0 0 0 0 0 0 0 0 0 0 0 0 0 0 0 0 0 0 0 0 0 0 0 0 0 0 0 0 0
Wind_Speed_500mb
22 23 25 26 26 29 33 37 35 28 29 36 42 48 41 37 28 26 25 28 23 14 14 8 9 8 2 8 11 17 20 12 10 11 8 4 4 7 12 14 17 17 20
23 22 19 20 23 24 26 29 34 40 40 41 39 42 44 43 44 42 38 33 30 21 15 10 17 10 3 6 9 16 17 10 8 9 8 8 8 7 11 13 13 14 16
27 19 18 20 25 29 30 34 36 34 33 35 43 47 50 50 49 43 36 32 28 23 17 15 16 7 4 4 16 19 20 15 15 11 9 9 10 10 12 14 13 15 17
28 27 24 31 36 38 41 40 38 38 30 32 34 38 43 46 43 38 36 39 31 24 16 16 13 8 4 9 13 15 11 11 13 10 9 10 11 12 16 21 24 27 29
24 29 33 39 41 48 39 32 29 31 31 23 22 25 30 36 39 36 30 32 28 25 22 12 11 9 7 10 9 9 12 7 14 10 11 16 20 22 25 27 30 31 31
37 38 38 41 42 35 32 33 31 28 27 27 25 24 25 29 33 31 32 31 31 26 18 16 8 5 4 7 5 8 9 8 12 11 19 21 25 28 28 30 33 32 32
40 40 37 36 33 29 28 29 27 29 29 27 25 26 17 18 20 22 30 34 34 25 20 10 10 7 2 2 3 6 7 11 17 23 29 31 30 32 32 32 30 34 35
28 30 30 32 27 25 26 25 25 26 29 23 23 16 11 8 18 26 34 38 32 25 14 11 13 8 8 8 10 10 13 15 19 25 30 31 32 33 30 29 30 30 33
31 28 30 33 32 33 34 29 26 25 24 21 22 17 11 9 27 27 35 37 26 22 22 14 12 12 12 13 17 17 20 21 27 31 33 34 32 28 30 30 32 36 37
31 34 32 29 33 28 26 22 22 20 19 18 20 24 18 18 12 21 32 29 28 31 26 18 18 18 18 19 18 20 21 26 28 30 32 30 29 27 27 30 22 29 30
25 28 28 25 28 16 11 12 15 15 14 13 17 18 30 19 22 32 33 29 30 27 22 21 21 21 20 19 20 21 26 27 28 26 28 30 30 32 24 21 19 17 27
27 23 16 13 7 6 11 13 15 12 9 8 12 9 9 13 18 19 18 28 25 22 23 22 21 20 17 19 22 25 27 28 26 29 34 26 22 22 19 19 17 13 13
39 32 15 9 14 17 13 14 9 4 3 7 5 7 7 10 9 22 9 15 19 17 14 14 14 15 18 21 23 25 23 23 32 31 23 20 13 16 14 12 12 15 16
29 29 31 22 20 7 15 16 16 7 3 9 11 12 11 11 11 10 10 13 11 9 10 11 11 15 18 21 24 25 22 28 28 16 7 7 6 4 5 10 15 19 22
26 26 25 26 19 21 20 19 15 17 14 23 25 20 14 12 9 8 8 6 6 5 3 3 6 14 20 23 24 26 20 17 4 3 4 7 6 7 9 13 16 20 24
21 18 16 18 18 21 21 26 25 24 23 26 22 17 16 16 13 10 7 4 1 1 1 4 8 13 15 12 10 8 5 2 4 6 10 12 15 16 16 17 18 20 24
18 18 16 15 10 13 22 20 27 26 25 23 21 16 14 14 10 7 4 2 3 3 2 5 6 8 15 17 16 13 10 8 12 14 18 21 19 16 17 16 15 19 23
19 17 17 18 6 7 12 15 17 20 18 15 11 9 7 6 7 5 3 4 6 13 9 9 9 10 10 11 11 11 13 15 14 12 13 10 8 8 8 13 17 16 19
20 16 15 15 12 10 9 10 11 14 14 11 7 6 7 7 7 6 6 13 13 10 9 9 9 11 12 14 14 15 17 16 17 14 13 10 8 10 13 13 13 12 16
28 20 16 14 11 12 11 10 9 11 14 17 18 18 19 18 17 16 14 11 12 13 12 12 12 13 13 16 19 21 17 17 13 9 10 13 15 16 14 17 17 12 10
23 27 21 17 14 11 9 11 11 12 14 18 21 23 23 23 22 20 17 15 16 16 14 12 11 11 13 18 21 25 27 21 14 11 12 12 17 21 19 24 19 20 16
29 32 34 32 27 21 15 11 10 14 18 20 21 25 26 25 23 22 20 16 14 14 13 13 12 12 16 22 26 28 28 28 23 19 24 13 18 17 20 21 20 23 25
31 32 33 34 33 32 29 25 20 20 21 21 20 20 19 18 17 15 14 13 14 13 12 13 12 15 18 20 24 24 25 24 22 24 25 29 23 17 17 23 25 19 16
26 26 28 30 29 28 28 27 24 22 21 21 21 21 19 19 20 13 11 10 12 16 16 15 13 13 20 24 30 25 25 25 28 26 22 30 24 21 17 14 8 11 13
16 19 21 26 29 26 24 22 20 19 19 19 19 20 18 14 16 13 14 17 20 17 22 13 14 17 15 16 21 19 26 30 32 27 27 20 26 19 16 7 8 12 17
15 13 13 15 18 18 23 21 16 14 13 13 13 13 13 11 11 11 16 19 23 25 18 14 13 16 24 26 25 24 21 20 24 30 25 22 18 16 13 7 15 17 8
Wind_Direction_500mb
314 321 332 323 303 291 284 279 280 279 255 257 260 261 265 242 253 256 260 267 253 250 268 252 266 188 151 10 19 1 360 346 315 305 297 267 308 334 324 303 300 300 276
304 309 322 337 332 319 309 298 287 277 273 268 261 263 261 252 257 266 267 257 251 237 246 252 225 222 273 346 8 337 340 340 341 320 289 288 291 292 290 300 303 306 300
294 300 311 322 322 320 318 311 305 298 286 276 271 264 265 266 268 269 258 239 237 239 238 250 232 224 289 329 340 328 323 326 332 329 306 288 289 282 279 282 287 293 292
287 289 295 310 312 315 310 303 298 287 288 283 274 267 266 264 261 257 250 232 228 231 236 215 218 221 228 314 313 312 317 321 329 330 301 288 281 286 288 289 289 286 291
288 290 299 299 306 303 311 307 300 290 278 275 283 279 264 259 255 247 238 225 220 218 213 218 205 200 249 311 318 313 327 334 349 339 341 325 311 305 305 303 299 300 299
293 294 294 293 298 308 308 304 293 278 275 275 278 283 273 256 243 238 232 217 214 197 190 206 217 233 305 357 352 341 348 325 327 324 320 314 309 304 300 304 305 305 311
282 281 284 292 299 299 306 302 294 279 266 268 274 268 259 247 220 208 194 191 183 177 183 199 220 222 300 308 334 359 332 329 324 321 323 321 311 308 308 308 305 299 299
293 284 282 295 298 300 304 294 294 287 277 268 255 255 211 197 195 194 191 185 173 178 181 235 223 243 265 260 267 277 295 299 305 305 309 309 300 295 300 297 293 295 294
293 291 289 300 300 293 298 288 290 285 279 259 246 231 205 178 167 169 165 167 176 188 207 203 241 255 257 272 276 280 286 293 301 303 305 305 300 299 292 288 288 286 291
303 284 280 289 302 296 291 283 282 283 277 258 252 240 210 180 151 161 171 178 186 199 213 218 241 245 253 263 260 272 285 291 298 302 310 307 312 294 295 291 289 292 294
315 303 290 273 284 289 301 302 286 284 284 262 249 241 208 157 154 165 177 185 193 202 221 226 238 248 252 259 266 278 293 302 307 309 304 296 305 306 296 300 298 291 300
348 334 317 290 268 340 343 324 315 279 283 271 237 180 186 181 171 140 163 189 203 218 231 240 245 239 244 256 271 292 306 311 312 310 306 294 296 295 300 307 311 316 324
13 31 40 77 68 27 355 357 353 302 248 203 179 172 151 146 155 193 203 199 202 217 221 223 229 249 266 275 287 302 307 318 311 302 293 295 274 293 311 326 337 341 345
29 32 32 44 24 53 46 44 26 33 102 138 148 116 108 124 136 165 193 206 192 203 227 247 265 274 287 294 300 303 298 309 308 308 301 282 292 309 347 351 354 350 352
27 28 30 50 44 45 59 48 51 51 83 107 104 107 112 115 118 127 134 147 179 187 231 279 317 317 315 310 303 297 295 300 346 35 311 320 323 323 325 330 335 341 344
10 22 22 26 34 45 53 54 61 66 82 91 90 92 91 90 92 96 100 93 35 297 209 315 349 5 347 355 357 354 4 97 358 319 300 299 296 298 302 313 322 324 330
12 11 18 21 39 62 62 62 67 77 77 78 79 80 84 82 75 67 57 35 12 10 40 63 45 53 48 46 41 38 24 346 321 306 301 298 305 294 295 305 309 319 324
19 13 11 9 35 86 73 63 75 73 72 68 63 56 45 36 12 5 16 18 49 88 60 59 63 55 29 29 17 358 338 327 321 307 313 321 288 288 307 307 314 315 322
16 7 4 24 77 91 84 70 62 41 32 21 4 347 340 349 16 39 77 101 77 56 51 40 17 4 7 359 358 351 342 334 315 295 296 300 291 301 313 317 326 329 342
28 28 37 49 73 73 73 68 55 46 43 48 68 76 81 81 71 74 100 82 46 42 37 31 26 27 16 7 358 355 360 353 360 339 329 301 289 299 304 303 291 307 330
34 41 50 61 63 71 76 81 78 63 70 73 80 78 77 79 77 78 80 71 57 50 45 39 23 13 3 359 358 355 352 348 354 358 346 315 293 275 290 289 287 268 272
54 60 63 63 62 67 76 85 91 87 88 89 86 82 80 76 69 64 60 49 35 21 16 11 2 355 352 345 343 345 344 345 345 336 328 325 302 308 300 287 286 277 253
71 61 60 60 60 62 62 68 88 96 91 82 74 70 60 58 52 44 38 29 18 7 3 358 351 338 336 335 337 335 336 336 330 326 319 317 325 313 314 312 286 268 245
53 63 57 58 55 60 67 72 76 76 72 70 67 66 62 59 49 52 37 4 351 344 334 330 338 324 323 325 320 317 328 328 326 322 324 319 316 313 329 312 322 256 262
36 49 58 59 61 62 66 69 70 70 69 64 63 60 50 29 14 16 22 18 6 7 2 352 330 332 331 338 333 311 315 316 322 326 319 314 330 316 330 255 316 305 298
27 40 49 52 47 50 52 54 64 58 46 41 35 30 9 355 353 359 344 343 349 346 337 338 342 339 333 328 325 320 327 334 330 326 317 318 328 339 333 292 308 329 319
Wind_Speed_850mb
22 23 25 26 26 29 33 37 35 28 29 36 42 48 41 37 28 26 25 28 23 14 14 8 9 8 2 8 11 17 20 12 10 11 8 4 4 7 12 14 17 17 20
23 22 19 20 23 24 26 29 34 40 40 41 39 42 44 43 44 42 38 33 30 21 15 10 17 10 3 6 9 16 17 10 8 9 8 8 8 7 11 13 13 14 16
27 19 18 20 25 29 30 34 36 34 33 35 43 47 50 50 49 43 36 32 28 23 17 15 16 7 4 4 16 19 20 15 15 11 9 9 10 10 12 14 13 15 17
28 27 24 31 36 38 41 40 38 38 30 32 34 38 43 46 43 38 36 39 31 24 16 16 13 8 4 9 13 15 11 11 13 10 9 10 11 12 16 21 24 27 29
24 29 33 39 41 48 39 32 29 31 31 23 22 25 30 36 39 36 30 32 28 25 22 12 11 9 7 10 9 9 12 7 14 10 11 16 20 22 25 27 30 31 31
37 38 38 41 42 35 32 33 31 28 27 27 25 24 25 29 33 31 32 31 31 26 18 16 8 5 4 7 5 8 9 8 12 11 19 21 25 28 28 30 33 32 32
40 40 37 36 33 29 28 29 27 29 29 27 25 26 17 18 20 22 30 34 34 25 20 10 10 7 2 2 3 6 7 11 17 23 29 31 30 32 32 32 30 34 35
28 30 30 32 27 25 26 25 25 26 29 23 23 16 11 8 18 26 34 38 32 25 14 11 13 8 8 8 10 10 13 15 19 25 30 31 32 33 30 29 30 30 33
31 28 30 33 32 33 34 29 26 25 24 21 22 17 11 9 27 27 35 37 26 22 22 14 12 12 12 13 17 17 20 21 27 31 33 34 32 28 30 30 32 36 37
31 34 32 29 33 28 26 22 22 20 19 18 20 24 18 18 12 21 32 29 28 31 26 18 18 18 18 19 18 20 21 26 28 30 32 30 29 27 27 30 22 29 30
25 28 28 25 28 16 11 12 15 15 14 13 17 18 30 19 22 32 33 29 30 27 22 21 21 21 20 19 20 21 26 27 28 26 28 30 30 32 24 21 19 17 27
27 23 16 13 7 6 11 13 15 12 9 8 12 9 9 13 18 19 18 28 25 22 23 22 21 20 17 19 22 25 27 28 26 29 34 26 22 22 19 19 17 13 13
39 32 15 9 14 17 13 14 9 4 3 7 5 7 7 10 9 22 9 15 19 17 14 14 14 15 18 21 23 25 23 23 32 31 23 20 13 16 14 12 12 15 16
29 29 31 22 20 7 15 16 16 7 3 9 11 12 11 11 11 10 10 13 11 9 10 11 11 15 18 21 24 25 22 28 28 16 7 7 6 4 5 10 15 19 22
26 26 25 26 19 21 20 19 15 17 14 23 25 20 14 12 9 8 8 6 6 5 3 3 6 14 20 23 24 26 20 17 4 3 4 7 6 7 9 13 16 20 24
21 18 16 18 18 21 21 26 25 24 23 26 22 17 16 16 13 10 7 4 1 1 1 4 8 13 15 12 10 8 5 2 4 6 10 12 15 16 16 17 18 20 24
18 18 16 15 10 13 22 20 27 26 25 23 21 16 14 14 10 7 4 2 3 3 2 5 6 8 15 17 16 13 10 8 12 14 18 21 19 16 17 16 15 19 23
19 17 17 18 6 7 12 15 17 20 18 15 11 9 7 6 7 5 3 4 6 13 9 9 9 10 10 11 11 11 13 15 14 12 13 10 8 8 8 13 17 16 19
20 16 15 15 12 10 9 10 11 14 14 11 7 6 7 7 7 6 6 13 13 10 9 9 9 11 12 14 14 15 17 16 17 14 13 10 8 10 13 13 13 12 16
28 20 16 14 11 12 11 10 9 11 14 17 18 18 19 18 17 16 14 11 12 13 12 12 12 13 13 16 19 21 17 17 13 9 10 13 15 16 14 17 17 12 10
23 27 21 17 14 11 9 11 11 12 14 18 21 23 23 23 22 20 17 15 16 16 14 12 11 11 13 18 21 25 27 21 14 11 12 12 17 21 19 24 19 20 16
29 32 34 32 27 21 15 11 10 14 18 20 21 25 26 25 23 22 20 16 14 14 13 13 12 12 16 22 26 28 28 28 23 19 24 13 18 17 20 21 20 23 25
31 32 33 34 33 32 29 25 20 20 21 21 20 20 19 18 17 15 14 13 14 13 12 13 12 15 18 20 24 24 25 24 22 24 25 29 23 17 17 23 25 19 16
26 26 28 30 29 28 28 27 24 22 21 21 21 21 19 19 20 13 11 10 12 16 16 15 13 13 20 24 30 25 25 25 28 26 22 30 24 21 17 14 8 11 13
16 19 21 26 29 26 24 22 20 19 19 19 19 20 18 14 16 13 14 17 20 17 22 13 14 17 15 16 21 19 26 30 32 27 27 20 26 19 16 7 8 12 17
15 13 13 15 18 18 23 21 16 14 13 13 13 13 13 11 11 11 16 19 23 25 18 14 13 16 24 26 25 24 21 20 24 30 25 22 18 16 13 7 15 17 8
Wind_Direction_850mb
314 321 332 323 303 291 284 279 280 279 255 257 260 261 265 242 253 256 260 267 253 250 268 252 266 188 151 10 19 1 360 346 315 305 297 267 308 334 324 303 300 300 276
304 309 322 337 332 319 309 298 287 277 273 268 261 263 261 252 257 266 267 257 251 237 246 252 225 222 273 346 8 337 340 340 341 320 289 288 291 292 290 300 303 306 300
294 300 311 322 322 320 318 311 305 298 286 276 271 264 265 266 268 269 258 239 237 239 238 250 232 224 289 329 340 328 323 326 332 329 306 288 289 282 279 282 287 293 292
287 289 295 310 312 315 310 303 298 287 288 283 274 267 266 264 261 257 250 232 228 231 236 215 218 221 228 314 313 312 317 321 329 330 301 288 281 286 288 289 289 286 291
288 290 299 299 306 303 311 307 300 290 278 275 283 279 264 259 255 247 238 225 220 218 213 218 205 200 249 311 318 313 327 334 349 339 341 325 311 305 305 303 299 300 299
293 294 294 293 298 308 308 304 293 278 275 275 278 283 273 256 243 238 232 217 214 197 190 206 217 233 305 357 352 341 348 325 327 324 320 314 309 304 300 304 305 305 311
282 281 284 292 299 299 306 302 294 279 266 268 274 268 259 247 220 208 194 191 183 177 183 199 220 222 300 308 334 359 332 329 324 321 323 321 311 308 308 308 305 299 299
293 284 282 295 298 300 304 294 294 287 277 268 255 255 211 197 195 194 191 185 173 178 181 235 223 243 265 260 267 277 295 299 305 305 309 309 300 295 300 297 293 295 294
293 291 289 300 300 293 298 288 290 285 279 259 246 231 205 178 167 169 165 167 176 188 207 203 241 255 257 272 276 280 286 293 301 303 305 305 300 299 292 288 288 286 291
303 284 280 289 302 296 291 283 282 283 277 258 252 240 210 180 151 161 171 178 186 199 213 218 241 245 253 263 260 272 285 291 298 302 310 307 312 294 295 291 289 292 294
315 303 290 273 284 289 301 302 286 284 284 262 249 241 208 157 154 165 177 185 193 202 221 226 238 248 252 259 266 278 293 302 307 309 304 296 305 306 296 300 298 291 300
348 334 317 290 268 340 343 324 315 279 283 271 237 180 186 181 171 140 163 189 203 218 231 240 245 239 244 256 271 292 306 311 312 310 306 294 296 295 300 307 311 316 324
13 31 40 77 68 27 355 357 353 302 248 203 179 172 151 146 155 193 203 199 202 217 221 223 229 249 266 275 287 302 307 318 311 302 293 295 274 293 311 326 337 341 345
29 32 32 44 24 53 46 44 26 33 102 138 148 116 108 124 136 165 193 206 192 203 227 247 265 274 287 294 300 303 298 309 308 308 301 282 292 309 347 351 354 350 352
27 28 30 50 44 45 59 48 51 51 83 107 104 107 112 115 118 127 134 147 179 187 231 279 317 317 315 310 303 297 295 300 346 35 311 320 323 323 325 330 335 341 344
10 22 22 26 34 45 53 54 61 66 82 91 90 92 91 90 92 96 100 93 35 297 209 315 349 5 347 355 357 354 4 97 358 319 300 299 296 298 302 313 322 324 330
12 11 18 21 39 62 62 62 67 77 77 78 79 80 84 82 75 67 57 35 12 10 40 63 45 53 48 46 41 38 24 346 321 306 301 298 305 294 295 305 309 319 324
19 13 11 9 35 86 73 63 75 73 72 68 63 56 45 36 12 5 16 18 49 88 60 59 63 55 29 29 17 358 338 327 321 307 313 321 288 288 307 307 314 315 322
16 7 4 24 77 91 84 70 62 41 32 21 4 347 340 349 16 39 77 101 77 56 51 40 17 4 7 359 358 351 342 334 315 295 296 300 291 301 313 317 326 329 342
28 28 37 49 73 73 73 68 55 46 43 48 68 76 81 81 71 74 100 82 46 42 37 31 26 27 16 7 358 355 360 353 360 339 329 301 289 299 304 303 291 307 330
34 41 50 61 63 71 76 81 78 63 70 73 80 78 77 79 77 78 80 71 57 50 45 39 23 13 3 359 358 355 352 348 354 358 346 315 293 275 290 289 287 268 272
54 60 63 63 62 67 76 85 91 87 88 89 86 82 80 76 69 64 60 49 35 21 16 11 2 355 352 345 343 345 344 345 345 336 328 325 302 308 300 287 286 277 253
71 61 60 60 60 62 62 68 88 96 91 82 74 70 60 58 52 44 38 29 18 7 3 358 351 338 336 335 337 335 336 336 330 326 319 317 325 313 314 312 286 268 245
53 63 57 58 55 60 67 72 76 76 72 70 67 66 62 59 49 52 37 4 351 344 334 330 338 324 323 325 320 317 328 328 326 322 324 319 316 313 329 312 322 256 262
36 49 58 59 61 62 66 69 70 70 69 64 63 60 50 29 14 16 22 18 6 7 2 352 330 332 331 338 333 311 315 316 322 326 319 314 330 316 330 255 316 305 298
27 40 49 52 47 50 52 54 64 58 46 41 35 30 9 355 353 359 344 343 349 346 337 338 342 339 333 328 325 320 327 334 330 326 317 318 328 339 333 292 308 329 319